| time (UTC) | temp F | wind direction | speed MPH | gust MPH | rain 1hr in | rain 24hr in | rain mn in | humidity % | barometer mb |
| 20260504035052 | 52 | 0 | 0.0 | 0.0 | 0.00 | 0.00 | 0.00 | 56 | 1003.4 |
| 20260504034553 | 53 | 0 | 0.0 | 0.0 | 0.00 | 0.00 | 0.00 | 55 | 1003.5 |
| 20260504034053 | 53 | 0 | 0.0 | 0.0 | 0.00 | 0.00 | 0.00 | 54 | 1003.6 |
| 20260504033553 | 53 | 0 | 0.0 | 0.0 | 0.00 | 0.00 | 0.00 | 54 | 1003.6 |
| 20260504033055 | 53 | 0 | 0.0 | 0.0 | 0.00 | 0.00 | 0.00 | 53 | 1003.7 |
| 20260504032553 | 54 | 224 | 0.0 | 0.0 | 0.00 | 0.00 | 0.00 | 53 | 1003.7 |
| 20260504032053 | 54 | 0 | 0.0 | 0.0 | 0.00 | 0.00 | 0.00 | 53 | 1003.8 |
| 20260504031554 | 55 | 0 | 0.0 | 0.0 | 0.00 | 0.00 | 0.00 | 52 | 1003.8 |
| 20260504031053 | 55 | 206 | 0.0 | 1.0 | 0.00 | 0.00 | 0.00 | 51 | 1003.8 |
| 20260504030553 | 55 | 316 | 0.0 | 1.0 | 0.00 | 0.00 | 0.00 | 50 | 1003.9 |
| 20260504030057 | 56 | 100 | 0.0 | 0.0 | 0.00 | 0.00 | 0.00 | 50 | 1004.0 |
| 20260504025553 | 56 | 254 | 0.0 | 1.0 | 0.00 | 0.00 | 0.00 | 49 | 1004.0 |
| 20260504025053 | 56 | 234 | 0.0 | 1.0 | 0.00 | 0.00 | 0.00 | 48 | 1004.0 |
| 20260504024553 | 57 | 354 | 0.0 | 1.0 | 0.00 | 0.00 | 0.00 | 48 | 1004.1 |
| 20260504024053 | 57 | 0 | 0.0 | 0.0 | 0.00 | 0.00 | 0.00 | 47 | 1004.1 |
| 20260504023553 | 58 | 294 | 0.0 | 1.0 | 0.00 | 0.00 | 0.00 | 46 | 1004.1 |
| 20260504023055 | 58 | 284 | 0.0 | 1.0 | 0.00 | 0.00 | 0.00 | 46 | 1004.1 |
| 20260504022553 | 59 | 0 | 0.0 | 0.0 | 0.00 | 0.00 | 0.00 | 47 | 1004.1 |
| 20260504022053 | 60 | 0 | 0.0 | 0.0 | 0.00 | 0.00 | 0.00 | 54 | 1004.1 |
| 20260504021553 | 61 | 10 | 0.0 | 0.0 | 0.00 | 0.00 | 0.00 | 53 | 1004.1 |
| 20260504021054 | 62 | 269 | 0.0 | 0.0 | 0.00 | 0.00 | 0.00 | 54 | 1004.1 |
| 20260504020553 | 62 | 292 | 0.0 | 0.0 | 0.00 | 0.00 | 0.00 | 52 | 1004.1 |
| 20260504020056 | 63 | 162 | 0.0 | 0.0 | 0.00 | 0.00 | 0.00 | 44 | 1004.0 |
| 20260504015553 | 64 | 191 | 0.0 | 1.0 | 0.00 | 0.00 | 0.00 | 44 | 1004.1 |
| 20260504015054 | 64 | 248 | 0.0 | 1.0 | 0.00 | 0.00 | 0.00 | 35 | 1004.1 |
| 20260504014554 | 65 | 233 | 1.0 | 2.0 | 0.00 | 0.00 | 0.00 | 34 | 1004.1 |
| 20260504014054 | 65 | 230 | 1.0 | 2.0 | 0.00 | 0.00 | 0.00 | 34 | 1004.2 |
| 20260504013553 | 65 | 227 | 1.0 | 2.0 | 0.00 | 0.00 | 0.00 | 34 | 1004.2 |
| 20260504013056 | 65 | 228 | 1.0 | 3.0 | 0.00 | 0.00 | 0.00 | 35 | 1004.3 |
| 20260504012553 | 66 | 234 | 1.0 | 2.0 | 0.00 | 0.00 | 0.00 | 33 | 1004.3 |
| 20260504012055 | 66 | 232 | 2.0 | 3.0 | 0.00 | 0.00 | 0.00 | 33 | 1004.3 |
| 20260504011554 | 66 | 225 | 1.0 | 2.0 | 0.00 | 0.00 | 0.00 | 33 | 1004.3 |
| 20260504011054 | 67 | 231 | 1.0 | 2.0 | 0.00 | 0.00 | 0.00 | 33 | 1004.3 |
| 20260504010553 | 67 | 244 | 2.0 | 3.0 | 0.00 | 0.00 | 0.00 | 32 | 1004.3 |
| 20260504010059 | 67 | 284 | 2.0 | 3.0 | 0.00 | 0.00 | 0.00 | 33 | 1004.3 |
| 20260504005554 | 67 | 248 | 2.0 | 3.0 | 0.00 | 0.00 | 0.00 | 32 | 1004.3 |
| 20260504005055 | 67 | 258 | 1.0 | 2.0 | 0.00 | 0.00 | 0.00 | 32 | 1004.4 |
| 20260504004555 | 67 | 258 | 3.0 | 6.0 | 0.00 | 0.00 | 0.00 | 31 | 1004.4 |
| 20260504004055 | 68 | 263 | 2.0 | 3.0 | 0.00 | 0.00 | 0.00 | 31 | 1004.4 |
| 20260504003553 | 68 | 250 | 2.0 | 4.0 | 0.00 | 0.00 | 0.00 | 31 | 1004.3 |
| 20260504003058 | 68 | 265 | 1.0 | 3.0 | 0.00 | 0.00 | 0.00 | 31 | 1004.3 |
| 20260504002554 | 68 | 242 | 1.0 | 2.0 | 0.00 | 0.00 | 0.00 | 33 | 1004.4 |
| 20260504002055 | 68 | 258 | 3.0 | 6.0 | 0.00 | 0.00 | 0.00 | 31 | 1004.4 |
| 20260504001556 | 68 | 310 | 2.0 | 4.0 | 0.00 | 0.00 | 0.00 | 32 | 1004.5 |
| 20260504001054 | 68 | 287 | 1.0 | 2.0 | 0.00 | 0.00 | 0.00 | 32 | 1004.5 |
| 20260504000554 | 68 | 319 | 2.0 | 3.0 | 0.00 | 0.00 | 0.00 | 31 | 1004.5 |
| 20260504000100 | 68 | 312 | 2.0 | 3.0 | 0.00 | 0.00 | 0.00 | 31 | 1004.5 |
| 20260503235554 | 69 | 298 | 3.0 | 4.0 | 0.00 | 0.00 | 0.00 | 30 | 1004.5 |
| 20260503235054 | 69 | 324 | 3.0 | 5.0 | 0.00 | 0.00 | 0.00 | 30 | 1004.5 |
| 20260503234555 | 69 | 257 | 4.0 | 5.0 | 0.00 | 0.00 | 0.00 | 29 | 1004.4 |
| 20260503234055 | 69 | 284 | 4.0 | 6.0 | 0.00 | 0.00 | 0.00 | 30 | 1004.5 |
| 20260503233554 | 69 | 267 | 5.0 | 8.0 | 0.00 | 0.00 | 0.00 | 29 | 1004.5 |
| 20260503233056 | 69 | 285 | 2.0 | 4.0 | 0.00 | 0.00 | 0.00 | 30 | 1004.7 |
| 20260503232554 | 69 | 302 | 4.0 | 6.0 | 0.00 | 0.00 | 0.00 | 30 | 1004.8 |
| 20260503232055 | 69 | 273 | 4.0 | 7.0 | 0.00 | 0.00 | 0.00 | 30 | 1004.9 |
| 20260503231554 | 69 | 320 | 4.0 | 5.0 | 0.00 | 0.00 | 0.00 | 31 | 1004.9 |
| 20260503231055 | 69 | 315 | 5.0 | 6.0 | 0.00 | 0.00 | 0.00 | 29 | 1004.9 |
| 20260503230554 | 69 | 301 | 3.0 | 5.0 | 0.00 | 0.00 | 0.00 | 30 | 1004.9 |
| 20260503230100 | 69 | 289 | 3.0 | 4.0 | 0.00 | 0.00 | 0.00 | 30 | 1004.9 |
| 20260503225554 | 69 | 277 | 3.0 | 5.0 | 0.00 | 0.00 | 0.00 | 30 | 1004.9 |
| 20260503225054 | 69 | 284 | 4.0 | 6.0 | 0.00 | 0.00 | 0.00 | 29 | 1005.0 |
| 20260503224555 | 69 | 288 | 4.0 | 6.0 | 0.00 | 0.00 | 0.00 | 29 | 1005.1 |
| 20260503224054 | 69 | 261 | 3.0 | 4.0 | 0.00 | 0.00 | 0.00 | 28 | 1005.0 |
| 20260503223554 | 69 | 274 | 5.0 | 7.0 | 0.00 | 0.00 | 0.00 | 28 | 1005.1 |
| 20260503223059 | 69 | 8 | 2.0 | 5.0 | 0.00 | 0.00 | 0.00 | 30 | 1005.1 |
| 20260503222553 | 69 | 308 | 5.0 | 8.0 | 0.00 | 0.00 | 0.00 | 30 | 1005.1 |
| 20260503222054 | 69 | 295 | 2.0 | 4.0 | 0.00 | 0.00 | 0.00 | 32 | 1005.1 |
| 20260503221555 | 69 | 293 | 3.0 | 4.0 | 0.00 | 0.00 | 0.00 | 32 | 1005.1 |
| 20260503221055 | 69 | 305 | 3.0 | 4.0 | 0.00 | 0.00 | 0.00 | 33 | 1005.2 |
| 20260503220554 | 69 | 289 | 4.0 | 6.0 | 0.00 | 0.00 | 0.00 | 31 | 1005.2 |
| 20260503215554 | 69 | 311 | 4.0 | 7.0 | 0.00 | 0.00 | 0.00 | 31 | 1005.2 |
| 20260503215055 | 69 | 320 | 5.0 | 8.0 | 0.00 | 0.00 | 0.00 | 31 | 1005.2 |
| 20260503214555 | 69 | 342 | 3.0 | 6.0 | 0.00 | 0.00 | 0.00 | 31 | 1005.2 |
| 20260503214056 | 69 | 323 | 4.0 | 5.0 | 0.00 | 0.00 | 0.00 | 32 | 1005.2 |
| 20260503213553 | 69 | 293 | 4.0 | 6.0 | 0.00 | 0.00 | 0.00 | 33 | 1005.2 |
| 20260503213059 | 69 | 308 | 4.0 | 6.0 | 0.00 | 0.00 | 0.00 | 33 | 1005.2 |
| 20260503212554 | 69 | 272 | 4.0 | 6.0 | 0.00 | 0.00 | 0.00 | 33 | 1005.3 |
| 20260503212056 | 69 | 317 | 4.0 | 7.0 | 0.00 | 0.00 | 0.00 | 34 | 1005.3 |
| 20260503211555 | 69 | 358 | 2.0 | 6.0 | 0.00 | 0.00 | 0.00 | 34 | 1005.3 |
| 20260503211056 | 69 | 287 | 4.0 | 5.0 | 0.00 | 0.00 | 0.00 | 35 | 1005.3 |
| 20260503210554 | 69 | 287 | 5.0 | 7.0 | 0.00 | 0.00 | 0.00 | 34 | 1005.3 |
| 20260503210058 | 69 | 288 | 3.0 | 4.0 | 0.00 | 0.00 | 0.00 | 35 | 1005.4 |
| 20260503205554 | 69 | 302 | 5.0 | 8.0 | 0.00 | 0.00 | 0.00 | 33 | 1005.3 |
| 20260503205056 | 69 | 293 | 4.0 | 7.0 | 0.00 | 0.00 | 0.00 | 33 | 1005.4 |
| 20260503204557 | 68 | 276 | 0.0 | 1.0 | 0.00 | 0.00 | 0.00 | 33 | 1005.5 |
| 20260503204058 | 68 | 5 | 3.0 | 7.0 | 0.00 | 0.00 | 0.00 | 31 | 1005.6 |
| 20260503203556 | 68 | 287 | 5.0 | 9.0 | 0.00 | 0.00 | 0.00 | 32 | 1005.6 |
| 20260503203102 | 68 | 314 | 3.0 | 6.0 | 0.00 | 0.00 | 0.00 | 32 | 1005.7 |
| 20260503202559 | 68 | 301 | 5.0 | 9.0 | 0.00 | 0.00 | 0.00 | 32 | 1005.8 |
| 20260503202100 | 68 | 307 | 4.0 | 5.0 | 0.00 | 0.00 | 0.00 | 32 | 1005.7 |
| 20260503201558 | 68 | 298 | 4.0 | 7.0 | 0.00 | 0.00 | 0.00 | 32 | 1005.8 |
| 20260503201058 | 68 | 347 | 1.0 | 3.0 | 0.00 | 0.00 | 0.00 | 31 | 1005.8 |
| 20260503200113 | 68 | 299 | 4.0 | 5.0 | 0.00 | 0.00 | 0.00 | 32 | 1005.9 |
| 20260503195558 | 68 | 315 | 4.0 | 5.0 | 0.00 | 0.00 | 0.00 | 30 | 1006.0 |
| 20260503195102 | 68 | 280 | 3.0 | 5.0 | 0.00 | 0.00 | 0.00 | 32 | 1006.1 |
| 20260503194600 | 68 | 287 | 5.0 | 7.0 | 0.00 | 0.00 | 0.00 | 32 | 1006.2 |
| 20260503194058 | 67 | 355 | 3.0 | 5.0 | 0.00 | 0.00 | 0.00 | 33 | 1006.1 |
| 20260503193558 | 68 | 291 | 5.0 | 7.0 | 0.00 | 0.00 | 0.00 | 33 | 1006.2 |
| 20260503193108 | 69 | 300 | 2.0 | 4.0 | 0.00 | 0.00 | 0.00 | 32 | 1006.1 |
| 20260503192600 | 68 | 13 | 2.0 | 5.0 | 0.00 | 0.00 | 0.00 | 34 | 1006.1 |
| 20260503192102 | 68 | 311 | 4.0 | 5.0 | 0.00 | 0.00 | 0.00 | 33 | 1006.1 |
| 20260503191601 | 68 | 354 | 3.0 | 5.0 | 0.00 | 0.00 | 0.00 | 33 | 1006.2 |
| 20260503191101 | 68 | 335 | 4.0 | 5.0 | 0.00 | 0.00 | 0.00 | 33 | 1006.1 |
| 20260503190109 | 67 | 291 | 1.0 | 3.0 | 0.00 | 0.00 | 0.00 | 38 | 1006.2 |
| 20260503185559 | 67 | 327 | 6.0 | 10.0 | 0.00 | 0.00 | 0.00 | 36 | 1006.2 |
| 20260503185102 | 67 | 326 | 2.0 | 4.0 | 0.00 | 0.00 | 0.00 | 38 | 1006.2 |
| 20260503184602 | 67 | 287 | 3.0 | 7.0 | 0.00 | 0.00 | 0.00 | 39 | 1006.3 |
| 20260503184102 | 67 | 281 | 4.0 | 5.0 | 0.00 | 0.00 | 0.00 | 40 | 1006.3 |
| 20260503183558 | 67 | 296 | 4.0 | 5.0 | 0.00 | 0.00 | 0.00 | 41 | 1006.3 |
| 20260503183102 | 67 | 303 | 5.0 | 8.0 | 0.00 | 0.00 | 0.00 | 40 | 1006.3 |
| 20260503182559 | 67 | 279 | 4.0 | 5.0 | 0.00 | 0.00 | 0.00 | 38 | 1006.3 |
| 20260503182102 | 67 | 313 | 5.0 | 8.0 | 0.00 | 0.00 | 0.00 | 39 | 1006.3 |
| 20260503181559 | 66 | 284 | 3.0 | 5.0 | 0.00 | 0.00 | 0.00 | 40 | 1006.3 |
| 20260503181102 | 67 | 259 | 6.0 | 8.0 | 0.00 | 0.00 | 0.00 | 40 | 1006.3 |
| 20260503180601 | 67 | 279 | 4.0 | 6.0 | 0.00 | 0.00 | 0.00 | 39 | 1006.4 |
| 20260503180104 | 67 | 320 | 2.0 | 4.0 | 0.00 | 0.00 | 0.00 | 39 | 1006.5 |
| 20260503175600 | 66 | 27 | 2.0 | 4.0 | 0.00 | 0.00 | 0.00 | 42 | 1006.5 |
| 20260503175100 | 66 | 348 | 2.0 | 5.0 | 0.00 | 0.00 | 0.00 | 42 | 1006.6 |
| 20260503174559 | 66 | 319 | 4.0 | 7.0 | 0.00 | 0.00 | 0.00 | 41 | 1006.5 |
| 20260503174100 | 66 | 294 | 5.0 | 8.0 | 0.00 | 0.00 | 0.00 | 42 | 1006.6 |
| 20260503173559 | 66 | 286 | 4.0 | 6.0 | 0.00 | 0.00 | 0.00 | 44 | 1006.6 |
| 20260503173106 | 66 | 315 | 3.0 | 4.0 | 0.00 | 0.00 | 0.00 | 42 | 1006.6 |
| 20260503172558 | 66 | 43 | 2.0 | 2.0 | 0.00 | 0.00 | 0.00 | 43 | 1006.6 |
| 20260503172104 | 66 | 348 | 2.0 | 4.0 | 0.00 | 0.00 | 0.00 | 42 | 1006.6 |
| 20260503171604 | 65 | 325 | 4.0 | 6.0 | 0.00 | 0.00 | 0.00 | 41 | 1006.8 |
| 20260503171100 | 65 | 304 | 4.0 | 7.0 | 0.00 | 0.00 | 0.00 | 42 | 1006.8 |
| 20260503170118 | 65 | 284 | 4.0 | 7.0 | 0.00 | 0.00 | 0.00 | 41 | 1006.9 |
| 20260503160107 | 64 | 329 | 3.0 | 6.0 | 0.00 | 0.00 | 0.00 | 43 | 1006.6 |
| 20260503150557 | 61 | 48 | 1.0 | 4.0 | 0.00 | 0.00 | 0.00 | 48 | 1006.3 |
| 20260503150106 | 61 | 333 | 2.0 | 4.0 | 0.00 | 0.00 | 0.00 | 48 | 1006.3 |
| 20260503140112 | 57 | 305 | 4.0 | 4.0 | 0.00 | 0.00 | 0.00 | 52 | 1006.1 |
| 20260503131101 | 55 | 295 | 2.0 | 4.0 | 0.00 | 0.00 | 0.00 | 53 | 1005.6 |
| 20260503130558 | 55 | 311 | 2.0 | 3.0 | 0.00 | 0.00 | 0.00 | 53 | 1005.6 |
| 20260503120104 | 50 | 224 | 0.0 | 1.0 | 0.00 | 0.00 | 0.00 | 64 | 1005.0 |
| 20260503110109 | 51 | 0 | 0.0 | 0.0 | 0.00 | 0.00 | 0.00 | 57 | 1004.7 |
| 20260503081556 | 59 | 192 | 3.0 | 4.0 | 0.00 | 0.00 | 0.00 | 46 | 1005.6 |
| 20260503081056 | 59 | 203 | 3.0 | 4.0 | 0.00 | 0.00 | 0.00 | 46 | 1005.7 |
| 20260503080556 | 59 | 230 | 2.0 | 4.0 | 0.00 | 0.00 | 0.00 | 46 | 1005.7 |
| 20260503072553 | 59 | 215 | 1.0 | 3.0 | 0.00 | 0.00 | 0.00 | 48 | 1006.3 |
| 20260503072053 | 59 | 214 | 2.0 | 3.0 | 0.00 | 0.00 | 0.00 | 47 | 1006.4 |
| 20260503071553 | 59 | 226 | 2.0 | 3.0 | 0.00 | 0.00 | 0.00 | 48 | 1006.5 |
| 20260503071053 | 58 | 219 | 2.0 | 3.0 | 0.00 | 0.00 | 0.00 | 49 | 1006.6 |
| 20260503070553 | 57 | 206 | 3.0 | 4.0 | 0.00 | 0.00 | 0.00 | 51 | 1006.7 |
| 20260503055053 | 56 | 218 | 1.0 | 2.0 | 0.00 | 0.00 | 0.00 | 50 | 1008.0 |
| 20260503054553 | 56 | 225 | 2.0 | 3.0 | 0.00 | 0.00 | 0.00 | 50 | 1008.0 |
| 20260503054053 | 56 | 203 | 2.0 | 3.0 | 0.00 | 0.00 | 0.00 | 50 | 1008.2 |
| 20260503053553 | 56 | 228 | 2.0 | 4.0 | 0.00 | 0.00 | 0.00 | 50 | 1008.4 |
| 20260503053054 | 57 | 215 | 2.0 | 3.0 | 0.00 | 0.00 | 0.00 | 50 | 1008.2 |
| 20260503052553 | 57 | 212 | 1.0 | 2.0 | 0.00 | 0.00 | 0.00 | 49 | 1008.1 |
| 20260503052053 | 57 | 217 | 1.0 | 3.0 | 0.00 | 0.00 | 0.00 | 49 | 1008.1 |
| 20260503051553 | 57 | 205 | 1.0 | 3.0 | 0.00 | 0.00 | 0.00 | 49 | 1008.2 |
| 20260503051053 | 57 | 210 | 1.0 | 3.0 | 0.00 | 0.00 | 0.00 | 49 | 1008.1 |
| 20260503050553 | 57 | 197 | 1.0 | 2.0 | 0.00 | 0.00 | 0.00 | 50 | 1008.2 |
| 20260503050054 | 57 | 262 | 0.0 | 1.0 | 0.00 | 0.00 | 0.00 | 49 | 1008.2 |
| 20260503045553 | 57 | 0 | 0.0 | 0.0 | 0.00 | 0.00 | 0.00 | 49 | 1008.4 |
| 20260503045053 | 57 | 203 | 2.0 | 4.0 | 0.00 | 0.00 | 0.00 | 49 | 1008.4 |
| 20260503044553 | 57 | 200 | 1.0 | 2.0 | 0.00 | 0.00 | 0.00 | 49 | 1008.5 |
| 20260503044053 | 57 | 216 | 1.0 | 2.0 | 0.00 | 0.00 | 0.00 | 50 | 1008.5 |
| 20260503043553 | 57 | 195 | 1.0 | 2.0 | 0.00 | 0.00 | 0.00 | 50 | 1008.6 |
| 20260503043054 | 58 | 213 | 1.0 | 2.0 | 0.00 | 0.00 | 0.00 | 49 | 1008.6 |
| 20260503042553 | 58 | 173 | 1.0 | 2.0 | 0.00 | 0.00 | 0.00 | 48 | 1008.7 |
| 20260503042053 | 58 | 217 | 1.0 | 2.0 | 0.00 | 0.00 | 0.00 | 48 | 1008.8 |
| 20260503041553 | 58 | 194 | 2.0 | 3.0 | 0.00 | 0.00 | 0.00 | 48 | 1008.9 |
| 20260503041053 | 59 | 192 | 1.0 | 2.0 | 0.00 | 0.00 | 0.00 | 47 | 1009.0 |
| 20260503040554 | 59 | 192 | 1.0 | 2.0 | 0.00 | 0.00 | 0.00 | 47 | 1009.0 |
| 20260503040056 | 59 | 199 | 1.0 | 2.0 | 0.00 | 0.00 | 0.00 | 46 | 1009.0 |
| 20260503035553 | 59 | 189 | 1.0 | 3.0 | 0.00 | 0.00 | 0.00 | 46 | 1009.2 |